Overview Statistics Trail Chart Weather Telemetry Raw packets
 

This is the latest recevied weather packets stored in our database for station/object W0CHP-13. If no packets are shown the sender has not sent any weather packets the latest 10 day(s).

<< 44 45 46 47 48 49 50 >>
Time Temp. Humidity Pressure Rain* Wind** Luminosity Snow
1788022815 20° C 89% 1013.7 hPa 2.79 mm - 20 W/m² -
1788022218 20° C 89% 1014.1 hPa 2.29 mm - 34 W/m² -
1788021615 20° C 88% 1014 hPa 0.76 mm - 81 W/m² -
1788021017 20.56° C 86% 1014.1 hPa 0.51 mm - 44 W/m² -
1788020415 20.56° C 84% 1014.1 hPa 0 mm - 40 W/m² -
1788019818 20.56° C 83% 1014.3 hPa 0 mm - 44 W/m² -
1788019216 20.56° C 83% 1014.1 hPa 0 mm - 74 W/m² -
1788018618 20.56° C 83% 1014 hPa 0 mm - 80 W/m² -
1788018016 20.56° C 82% 1014.1 hPa 0 mm - 77 W/m² -
1788017417 20° C 84% 1014.1 hPa 0 mm - 99 W/m² -
1788016816 20° C 84% 1014.1 hPa 0 mm - 101 W/m² -
1788016218 20° C 84% 1014.8 hPa 0 mm - 49 W/m² -
1788015616 20° C 84% 1014.8 hPa 0 mm - 46 W/m² -
1788015018 19.44° C 86% 1014.8 hPa 0.25 mm - 58 W/m² -
1788014417 19.44° C 86% 1014.8 hPa 0.25 mm - 35 W/m² -
1788013818 19.44° C 87% 1014.8 hPa 0.25 mm - 46 W/m² -
1788013216 19.44° C 87% 1015 hPa 0.25 mm - 36 W/m² -
1788012618 18.89° C 88% 1015 hPa 0.51 mm - 41 W/m² -
1788012017 18.89° C 89% 1015.1 hPa 0.76 mm - 22 W/m² -
1788011415 18.89° C 90% 1015.4 hPa 1.02 mm - 25 W/m² -
1788010817 18.89° C 90% 1015.4 hPa 1.27 mm - 40 W/m² -
1788010215 18.89° C 91% 1016.1 hPa 1.52 mm - 30 W/m² -
1788009620 18.89° C 91% 1016 hPa 1.78 mm - 16 W/m² -
1788009016 18.89° C 91% 1015.8 hPa 2.03 mm - 14 W/m² -
1788008717 18.89° C 92% 1016.1 hPa 2.03 mm - 11 W/m² -

* Rain latest hour (hover to see other rain measurements)
** Current wind speed in m/s (hover to see current wind gust speed)